Location: Newark
(35.5300°N, 14.3000°E)
Time: 16:01:16
(UTC+00:00)

Tiros 1 despin weight - Visible Passes

Search period start: 17 November 2019 00:00
Search period end: 27 November 2019 00:00
Orbit: 594 x 642 km, 48.2° (Epoch: 17 November)

Date Brightness Start Highest point End Pass type
(mag) Time Alt. Az. Time Alt. Az. Time Alt. Az.
17 Nov ? 17:09:50 10° NW 17:13:23 22° NNE 17:14:21 21° NE visible
17 Nov ? 18:50:56 10° NW 18:51:25 13° NW 18:51:25 13° NW visible
18 Nov ? 17:26:14 10° NW 17:30:17 32° NNE 17:30:27 32° NNE visible
19 Nov ? 17:42:37 10° NW 17:46:40 52° NNE 17:46:40 52° NNE visible
20 Nov ? 16:17:59 10° NW 16:21:43 25° NNE 16:25:30 10° ENE visible
20 Nov ? 17:59:08 10° NW 18:03:04 66° WNW 18:03:04 66° WNW visible
21 Nov ? 16:34:22 10° NW 16:38:34 39° NNE 16:42:33 11° E visible
21 Nov ? 18:15:55 10° WNW 18:19:40 38° WSW 18:19:40 38° WSW visible
22 Nov ? 16:50:47 10° NW 16:55:16 69° NE 16:59:26 12° ESE visible
22 Nov ? 18:33:16 10° W 18:36:27 19° SW 18:36:35 19° SW visible
23 Nov ? 17:07:23 10° WNW 17:11:48 60° SW 17:16:16 10° SE visible
24 Nov ? 17:24:20 10° WNW 17:28:12 29° SW 17:32:06 10° SSE visible
25 Nov ? 17:42:17 10° W 17:44:29 13° SW 17:46:43 10° SSW visible
26 Nov ? 16:15:41 10° WNW 16:19:55 44° SW 16:24:12 10° SSE visible
